Theta_e
336 342 348 350 349 349 348 349 356 360 360 351 351 352 355 366 366 365 365 366 366 363 357 354 353 355 358 357 354 354 354 356 357 348 348 356 356 354 355 352 354 353 354 355 353 352 352 351 350 351 350 350 349 349 350 350 347 342 340 341 341 343 344 344 345 346 347 348 348 348 349 349 348 349 350 351 351 351 352 352 352 353 353 353 353 354 353 353 352 351 351 351 351 351 352 352 351
346 349 348 348 348 350 353 351 354 353 353 349 353 355 357 368 366 364 364 365 366 360 355 352 352 354 356 353 350 352 354 353 354 354 353 354 354 355 353 351 352 353 355 354 354 353 352 352 351 350 350 349 349 348 347 346 342 341 341 343 344 345 346 347 348 349 349 349 350 350 350 349 348 349 351 352 351 350 351 351 352 353 353 353 352 352 352 353 352 352 351 351 350 351 351 352 351
349 347 347 348 349 351 356 357 348 342 347 348 351 361 363 367 366 363 364 365 363 356 352 350 353 356 354 355 352 353 354 351 350 353 353 353 354 354 352 352 351 352 355 355 355 355 353 351 350 348 348 347 346 346 344 343 342 342 344 345 347 348 348 348 350 351 350 350 351 351 351 350 350 351 352 352 351 351 351 351 351 352 352 353 352 351 352 352 352 353 352 352 350 350 350 351 350
348 347 348 349 353 354 358 362 354 345 349 347 346 363 367 365 366 363 364 361 356 352 351 352 357 358 355 355 352 352 353 350 351 352 353 354 354 353 353 352 352 353 354 355 355 356 352 349 348 347 346 344 343 344 343 342 342 343 346 348 349 350 351 351 351 352 351 351 351 351 351 352 352 352 352 352 351 351 351 351 352 352 352 352 352 351 351 351 352 352 352 352 350 349 349 349 349
349 349 349 352 359 359 362 364 359 353 353 350 347 364 368 363 365 363 364 358 352 351 352 356 359 358 355 355 351 354 352 348 350 352 354 355 354 353 353 353 353 353 354 355 355 355 350 346 347 345 344 343 343 343 342 341 343 347 349 350 352 353 353 352 351 352 351 352 352 351 351 352 352 352 352 351 351 351 350 351 351 351 351 352 351 351 352 352 352 352 351 351 349 348 348 349 349
350 350 350 354 358 359 361 354 351 354 359 358 356 365 365 362 364 362 361 356 352 352 354 356 357 356 355 353 350 352 350 349 350 351 354 355 354 354 353 353 353 353 354 354 354 355 350 347 346 345 344 345 344 343 341 342 347 350 351 352 353 353 352 352 352 352 351 352 352 352 351 351 351 352 352 351 350 350 350 350 351 350 350 351 351 352 352 351 351 351 351 351 350 349 349 349 349
350 351 352 356 358 359 361 350 349 355 359 362 363 365 364 363 363 361 360 356 356 355 356 355 353 355 356 353 351 352 350 352 351 351 353 354 354 354 353 352 353 354 353 353 354 354 350 347 347 346 345 345 345 343 343 347 351 352 353 353 352 352 351 351 352 352 352 352 352 352 352 351 350 351 352 351 350 350 350 350 350 349 349 350 351 351 350 350 351 351 351 351 351 351 351 351 350
351 353 354 359 364 364 360 353 356 359 360 363 364 365 363 364 362 361 361 358 359 358 357 355 352 357 357 352 352 352 351 353 352 352 353 353 353 353 353 351 352 355 354 355 355 353 349 347 347 345 342 344 345 345 348 351 353 353 352 352 351 352 351 351 351 353 352 351 352 352 353 352 350 351 351 350 350 350 350 351 351 349 349 350 351 350 349 349 350 351 350 351 352 352 352 352 350
354 355 357 360 363 361 355 353 361 362 363 365 363 365 363 364 362 361 362 360 361 358 358 355 353 359 358 352 353 352 351 354 352 352 351 352 352 352 352 350 352 353 354 355 355 352 349 346 343 341 343 346 347 348 351 352 353 353 351 350 351 352 351 351 351 352 352 352 352 352 351 351 351 351 349 348 349 351 350 350 350 350 350 350 350 350 350 349 349 350 350 351 351 351 352 351 350
354 357 360 362 360 354 350 350 359 364 365 365 364 365 364 362 361 362 362 361 360 359 358 354 354 358 356 355 355 352 352 353 352 352 351 351 351 350 350 349 350 352 352 353 353 353 349 343 340 343 345 347 348 350 353 353 353 352 350 349 350 350 351 352 352 353 352 352 352 352 352 351 351 351 348 348 349 350 350 349 350 351 351 350 350 349 349 349 349 349 350 350 350 350 350 350 350
358 358 358 361 355 345 343 345 356 365 364 364 364 363 362 362 361 361 362 362 360 358 357 354 356 356 355 356 354 353 353 352 352 351 350 350 350 349 349 348 351 352 351 351 352 353 350 343 341 344 347 347 347 350 353 354 353 352 350 349 349 350 352 352 352 353 352 352 352 352 351 350 351 349 348 350 349 350 351 351 351 351 350 349 349 349 348 348 349 349 350 349 349 350 349 349 350
359 360 360 361 354 346 344 349 359 365 364 365 366 363 361 362 362 361 363 364 361 357 356 356 356 354 357 357 354 353 352 351 351 351 350 350 349 349 349 349 351 352 351 350 351 352 352 347 345 346 347 347 347 351 354 354 353 352 351 350 349 351 352 352 352 352 352 352 351 351 350 349 352 350 349 349 349 350 350 350 351 351 351 350 349 349 348 348 349 350 350 349 348 348 348 348 348
358 361 361 360 358 354 352 356 361 364 365 366 366 365 361 361 363 362 363 364 362 359 357 357 354 354 358 356 354 352 350 351 351 350 350 349 349 349 350 350 351 351 351 351 351 351 351 350 350 350 347 345 348 353 353 353 353 352 352 350 350 351 352 351 352 352 352 351 351 352 350 349 351 351 351 349 349 351 349 347 350 351 351 350 349 349 349 349 349 349 349 348 347 347 348 347 346
357 359 360 361 360 359 357 355 358 360 361 366 365 363 363 362 362 361 362 364 364 361 357 355 352 356 357 356 355 350 349 352 351 351 350 350 350 350 349 349 351 351 350 350 351 351 351 351 352 351 348 347 351 353 352 351 352 351 351 350 350 351 352 351 350 351 352 351 351 352 350 349 350 351 352 349 349 351 348 347 349 351 351 350 349 349 348 348 348 348 348 346 345 344 345 345 343
356 356 361 363 358 356 358 356 357 357 358 365 365 363 364 362 362 361 362 364 363 358 356 355 353 357 355 355 355 349 350 352 350 351 349 350 350 350 349 349 350 351 352 352 351 351 351 352 354 353 351 352 352 353 353 351 350 350 351 351 351 351 352 351 350 351 352 351 350 352 351 350 350 352 352 349 349 348 347 347 347 349 350 350 349 350 349 348 347 348 348 347 345 343 343 343 342
353 355 362 362 354 352 357 360 359 357 359 363 363 363 364 361 360 361 362 360 358 355 357 355 354 357 351 351 353 350 351 351 350 351 350 351 351 350 349 348 349 352 353 352 352 352 352 352 355 355 354 352 352 353 354 352 349 350 351 350 351 351 351 351 350 351 352 351 350 351 352 351 351 352 352 350 348 346 346 347 346 347 350 350 350 351 350 348 347 347 347 346 344 343 343 343 342
352 360 364 356 353 354 357 364 359 357 362 364 363 363 365 362 360 360 361 360 359 357 357 355 352 353 349 349 352 351 351 350 351 351 351 352 351 350 349 348 350 353 354 353 353 353 352 352 353 356 354 351 352 352 353 353 350 350 350 350 350 350 350 350 350 352 352 351 350 350 350 351 351 351 352 350 348 348 346 347 347 348 350 350 350 350 350 348 346 345 344 343 342 341 341 341 341
355 364 362 350 353 357 358 365 360 360 365 364 362 362 364 363 362 362 362 363 361 359 358 354 353 352 349 351 352 351 351 351 352 352 352 353 351 349 348 349 351 354 355 354 354 353 354 354 354 356 353 350 353 352 352 352 350 350 350 351 352 350 349 349 349 352 352 350 349 350 350 350 351 352 352 350 349 350 348 347 348 348 348 347 347 347 347 346 345 345 343 341 340 342 343 344 342
357 363 359 353 357 357 355 362 360 361 363 363 363 362 363 363 363 363 363 364 361 361 360 355 354 351 349 351 352 351 351 351 352 352 352 352 351 349 349 349 351 354 356 355 356 355 356 355 355 355 351 351 353 352 351 351 351 352 351 351 351 352 351 350 349 350 351 351 351 351 351 351 351 352 352 350 349 349 349 347 347 347 346 346 345 344 344 345 346 345 344 343 345 347 349 348 346
358 360 362 360 358 355 351 358 361 361 360 363 364 363 363 362 362 363 363 364 362 363 360 355 355 351 349 349 351 352 350 351 351 351 351 351 350 348 348 349 352 354 355 356 356 357 357 356 355 354 351 352 354 352 352 353 353 352 351 351 351 351 352 351 350 350 351 352 352 351 351 350 349 351 352 349 346 348 350 348 347 347 346 345 346 345 346 347 346 346 346 345 348 350 349 346 346
356 359 362 358 355 355 351 351 358 360 359 363 363 363 364 362 361 363 364 364 364 362 357 356 354 350 349 347 350 351 350 351 350 350 350 350 348 347 347 348 352 353 354 354 355 357 356 355 355 354 352 353 354 351 350 353 353 351 350 350 349 351 352 351 351 351 351 352 352 352 351 350 348 350 352 349 347 347 349 348 347 347 346 346 347 347 347 348 348 348 347 348 349 348 344 342 343
354 357 358 355 353 353 351 346 352 358 359 362 363 363 363 361 361 362 363 364 363 360 355 355 351 349 349 347 348 349 348 349 350 350 350 349 348 345 346 348 350 351 352 353 354 355 354 354 353 353 352 354 355 352 351 351 350 351 352 351 351 352 352 352 351 350 352 352 353 352 350 350 350 350 351 350 350 349 349 350 348 347 348 349 349 348 348 349 350 350 350 350 349 345 343 343 343
353 357 356 354 350 351 350 343 346 356 361 364 363 362 362 362 362 361 362 363 361 359 355 352 350 350 349 348 347 345 345 347 349 350 348 348 347 345 345 347 349 350 351 352 353 353 352 352 351 352 352 354 355 353 354 353 351 354 354 354 354 354 353 353 353 351 353 355 353 352 351 352 352 350 351 350 349 349 348 349 349 349 349 349 349 350 349 349 350 351 352 351 347 345 345 345 344
353 356 354 351 346 348 346 342 343 349 360 363 362 362 363 365 363 361 362 363 360 360 355 349 351 350 349 347 345 344 345 347 348 348 347 347 346 345 345 345 348 349 351 352 352 351 350 351 351 352 353 354 355 355 354 355 355 355 355 355 355 355 354 353 353 353 355 356 354 353 352 352 352 351 352 351 349 349 348 347 348 349 349 348 349 349 348 349 351 351 352 351 348 347 346 345 345
352 353 353 348 345 346 343 342 341 343 358 360 362 364 365 364 363 362 362 361 360 360 353 349 350 348 347 346 344 345 345 346 347 345 346 346 344 345 344 345 346 347 349 350 351 349 348 350 352 353 353 353 355 356 355 356 356 355 355 355 354 354 355 353 354 355 355 355 355 355 353 351 352 352 351 350 349 351 351 349 349 349 349 349 349 349 348 349 349 350 351 351 349 349 348 348 347
349 350 350 347 345 344 341 340 339 343 354 358 363 367 364 362 362 364 363 360 360 358 352 351 349 347 347 346 344 345 344 344 346 345 344 345 344 344 344 344 344 347 348 349 349 348 347 349 352 353 353 353 355 356 355 355 355 355 356 355 354 354 354 354 353 353 353 353 355 356 356 354 352 351 351 349 351 353 353 351 351 350 350 350 351 351 350 349 350 351 351 351 350 349 350 349 347
346 347 347 345 345 341 340 341 341 343 349 356 363 365 362 362 363 364 362 361 359 355 353 352 350 348 347 346 345 345 345 344 346 345 345 344 344 343 344 344 343 346 347 347 348 347 348 349 351 353 352 354 355 356 356 356 355 356 356 354 353 353 352 352 352 351 351 352 355 356 357 356 352 350 350 348 351 354 353 352 352 350 351 351 351 352 352 351 352 353 354 353 351 351 351 349 347
344 345 343 343 341 340 341 343 343 345 349 353 361 365 365 363 363 364 361 361 360 354 354 352 350 350 348 347 346 346 346 345 346 345 345 345 345 344 344 344 343 345 345 345 347 347 348 349 350 352 352 354 356 356 356 356 356 356 355 353 352 351 350 351 351 351 351 353 355 355 356 356 353 352 352 350 351 354 353 353 353 351 352 352 352 353 353 353 353 355 357 356 353 352 351 350 349
343 343 343 343 341 341 342 345 343 346 353 356 359 361 365 367 362 362 360 360 361 355 353 352 350 350 348 348 347 346 346 346 347 345 345 344 344 345 344 344 343 344 344 344 345 346 347 348 351 351 352 355 356 355 355 356 356 354 353 351 351 351 350 350 350 352 352 353 354 354 355 354 353 354 355 354 354 354 354 354 353 354 354 352 354 355 354 353 352 353 355 354 352 351 351 350 349
341 342 341 341 339 341 345 347 343 347 356 359 357 348 354 367 362 360 361 360 362 358 354 354 352 350 348 349 347 347 347 347 347 345 345 345 344 344 344 344 343 343 344 345 345 346 347 348 350 350 351 354 356 355 354 354 354 352 351 351 351 351 350 350 350 352 352 352 353 354 354 354 355 356 357 358 355 354 355 354 353 355 355 354 355 355 352 351 352 352 352 351 350 350 351 350 349
339 338 338 341 332 334 349 346 342 353 354 357 358 344 349 363 361 360 361 361 362 359 356 355 353 352 349 349 348 346 347 348 348 346 345 344 344 344 344 344 343 343 344 344 346 345 347 348 349 349 350 352 355 354 353 354 352 350 351 350 351 351 350 349 349 351 351 350 352 354 355 355 356 356 358 361 357 352 354 354 354 356 356 355 355 356 353 351 352 353 351 350 351 350 350 351 351
335 330 328 337 330 333 353 345 343 358 353 356 359 347 352 362 360 360 361 361 362 357 357 356 354 354 351 349 349 347 347 349 348 346 346 344 344 344 344 344 343 343 344 344 346 346 347 347 348 349 349 351 353 355 354 354 352 350 351 350 352 352 350 350 349 350 350 350 352 354 356 357 358 358 358 360 358 353 353 355 356 357 357 355 355 357 355 352 353 354 353 351 352 351 349 350 351
332 329 322 329 329 331 344 343 346 354 352 358 356 350 356 361 359 360 361 361 363 360 359 359 356 355 353 350 348 347 348 348 347 347 346 345 345 344 344 345 344 344 343 344 346 347 347 347 348 348 349 350 353 355 355 354 353 352 351 351 352 353 351 351 350 351 351 353 354 356 359 360 359 360 359 361 359 354 354 355 356 358 358 357 357 357 355 354 354 355 356 354 354 353 349 349 350
324 327 324 328 332 329 335 345 348 349 352 360 358 354 358 359 360 361 363 361 362 362 360 360 358 355 355 352 348 348 348 348 347 346 347 346 345 344 344 345 344 344 343 344 346 347 348 347 347 347 349 351 352 355 355 354 354 354 353 351 352 353 352 352 352 353 353 355 357 357 361 361 359 360 360 361 361 355 355 356 356 359 359 359 359 358 356 356 355 356 357 355 355 355 351 349 349
318 321 322 325 331 329 333 344 346 347 349 358 360 354 356 358 361 362 361 360 360 361 361 361 360 356 355 353 350 349 349 348 347 347 347 346 346 345 346 345 344 344 343 344 347 347 348 347 346 348 349 351 352 355 355 354 355 354 352 352 353 354 353 353 352 354 354 355 358 358 360 361 360 361 359 360 361 355 355 357 357 359 359 359 360 358 357 357 358 358 357 355 354 354 353 352 349
324 325 325 323 326 327 336 346 346 348 345 357 363 356 359 360 358 360 359 359 360 360 360 361 360 356 356 355 352 350 349 348 348 348 347 346 346 345 346 346 345 344 343 344 347 347 348 347 348 350 350 350 352 355 355 353 354 353 352 352 353 354 354 354 353 354 355 356 357 358 360 361 361 362 361 361 362 358 358 358 358 359 358 360 360 358 357 358 360 359 356 355 354 353 353 352 350
331 330 327 327 327 325 338 348 347 350 343 351 362 356 361 362 357 359 357 359 362 360 360 359 358 357 357 356 354 352 350 349 349 349 347 347 346 345 347 347 345 344 343 345 348 348 349 348 350 352 350 351 352 354 354 353 353 352 352 352 352 355 356 356 355 355 355 356 358 358 359 360 360 361 361 362 361 360 360 359 360 361 359 360 361 359 357 357 358 358 356 355 354 355 354 351 349
334 330 326 325 327 328 337 345 344 349 343 343 355 353 355 359 356 357 356 360 362 361 361 359 358 357 357 357 355 354 351 350 349 349 348 347 347 346 347 347 346 345 344 347 349 348 350 349 351 352 351 351 352 353 353 353 353 352 352 353 352 355 357 357 356 355 355 356 358 359 358 359 359 359 361 362 361 360 361 361 361 361 360 359 359 358 358 358 359 358 357 355 353 355 356 351 348
334 332 326 322 328 331 332 338 342 345 341 339 348 350 349 352 352 353 355 358 359 361 362 360 358 359 359 358 357 355 353 351 349 348 349 349 349 347 348 348 347 346 345 347 349 349 349 350 352 353 352 352 352 352 353 354 354 352 353 353 352 354 356 356 356 355 355 355 356 358 359 359 359 359 360 361 361 361 362 362 360 361 361 361 361 361 359 360 359 357 357 358 356 354 353 352 349
333 331 324 320 328 328 322 328 337 341 340 340 342 341 345 351 351 351 351 351 353 356 361 362 361 359 359 358 358 355 353 353 350 348 349 349 350 349 349 348 347 346 346 347 349 349 349 351 354 354 353 352 352 352 353 354 354 354 355 355 354 355 355 355 355 355 354 353 355 357 359 359 358 359 359 359 360 361 362 362 360 360 361 362 364 363 360 359 358 356 357 358 356 353 351 351 350
332 333 326 322 329 329 326 330 336 337 335 341 339 329 331 343 349 350 348 346 349 351 357 360 361 360 358 358 358 356 354 354 352 349 349 351 351 350 350 348 346 346 347 347 348 349 349 351 354 355 354 353 352 353 354 354 355 356 358 359 357 356 355 355 356 356 355 355 356 356 358 359 358 358 358 358 359 360 362 363 362 361 361 361 361 360 359 358 357 358 357 356 356 355 353 351 350
325 332 331 328 331 333 333 333 331 326 323 332 334 320 321 333 343 349 348 346 349 349 352 357 360 360 359 358 357 356 356 355 353 351 350 351 352 352 351 349 347 346 347 348 347 348 348 350 354 355 355 353 352 355 355 355 356 357 359 360 358 358 356 356 356 355 354 355 355 355 355 357 358 358 358 358 359 359 361 363 362 362 361 361 361 359 358 357 356 356 355 355 356 356 356 355 351
317 325 331 333 335 333 332 331 324 317 318 331 333 322 319 327 336 348 349 346 350 352 355 356 357 360 359 358 357 355 356 355 354 353 352 352 353 353 353 349 347 347 348 348 347 348 348 350 355 356 356 355 353 355 356 355 357 357 357 357 356 357 356 355 355 353 353 353 354 355 355 356 358 358 357 359 362 361 362 362 361 362 360 360 360 359 357 355 355 356 356 357 359 358 358 358 354
316 325 330 332 335 334 332 329 323 320 323 329 332 327 320 320 331 348 350 345 351 357 358 355 355 358 358 357 357 355 355 355 355 354 353 352 353 354 354 351 349 347 347 348 346 348 349 352 355 356 356 355 354 356 356 356 358 357 355 354 354 354 353 355 355 354 353 353 355 356 356 357 357 358 359 359 362 362 362 362 361 362 362 359 359 358 357 355 356 358 359 361 362 361 360 360 356
323 330 331 331 335 334 334 329 323 325 324 318 322 325 319 318 334 350 352 350 356 362 360 354 354 357 357 356 355 355 354 355 354 354 353 354 354 354 354 353 351 348 349 349 347 348 350 353 356 356 357 356 356 357 357 356 357 356 355 353 354 353 351 353 354 354 354 354 355 356 357 358 357 359 362 360 361 362 362 363 362 362 363 360 357 357 356 357 359 360 361 361 361 360 361 360 359
328 332 331 332 334 333 334 330 323 322 321 315 317 320 318 320 329 336 344 350 355 361 360 356 356 356 355 355 355 355 355 356 355 354 355 356 354 354 354 354 351 349 350 350 349 349 351 354 357 358 357 357 357 359 359 357 355 355 355 353 354 354 352 352 353 354 355 355 356 356 358 360 357 357 360 360 361 361 361 362 361 361 362 359 356 358 357 358 360 360 361 362 361 362 362 360 359
328 331 331 330 331 332 331 328 323 319 318 317 317 319 319 321 327 332 341 350 353 355 357 357 359 357 356 355 355 354 354 356 354 353 355 356 356 355 354 354 353 350 351 352 350 350 351 354 358 359 358 357 358 360 361 358 354 354 355 354 354 355 353 352 353 354 355 356 356 356 358 360 359 356 357 358 358 359 360 361 360 359 359 358 358 359 358 357 357 357 359 361 361 363 364 362 360
329 329 329 323 323 325 322 321 321 318 317 317 319 322 318 318 328 340 348 351 349 350 353 356 358 357 358 356 353 354 355 356 356 354 354 355 356 356 355 354 354 352 351 352 352 351 353 355 358 360 359 358 358 360 362 359 355 353 354 354 354 355 354 353 354 355 356 356 356 356 356 358 359 358 357 357 355 357 360 360 359 359 359 359 359 358 358 357 356 356 358 359 359 360 362 364 362
329 327 323 318 316 318 317 316 316 317 316 317 321 322 315 317 331 345 351 350 348 350 350 350 352 356 358 356 353 354 356 357 357 355 355 355 355 357 356 355 355 354 352 353 353 352 353 355 359 361 361 360 359 360 361 360 357 354 354 354 354 355 355 354 354 354 355 356 355 355 356 357 359 360 359 358 356 356 359 360 360 361 362 362 362 361 361 360 358 357 358 357 358 359 360 362 362
328 323 318 316 315 316 317 316 316 316 315 317 323 320 315 324 340 349 350 348 347 349 349 350 350 350 353 354 354 356 357 357 356 356 354 354 355 356 356 355 355 354 353 353 354 353 354 356 359 361 362 362 360 361 361 360 359 356 355 354 353 354 355 354 354 352 352 354 354 355 356 356 358 358 358 358 358 357 358 359 359 362 364 364 363 364 364 362 361 360 359 356 356 358 360 361 361
328 328 324 317 313 315 316 315 315 315 315 315 318 316 315 325 341 348 346 346 346 347 347 349 351 350 352 352 352 357 358 357 357 356 355 355 356 356 356 355 355 354 353 353 354 354 354 357 360 362 363 363 362 362 362 361 360 358 357 356 354 354 355 355 354 351 350 351 352 353 355 356 355 355 357 357 358 358 358 359 359 359 363 364 363 363 363 362 362 362 362 359 357 359 361 361 360
325 329 324 316 317 318 314 313 313 313 314 313 313 318 324 332 343 347 345 345 345 346 347 348 350 350 351 352 351 354 357 357 357 356 355 355 356 356 356 355 356 355 353 352 354 355 355 359 362 363 364 364 363 363 362 362 360 359 358 357 356 355 355 356 354 353 352 351 351 351 353 355 354 353 356 356 357 358 358 360 359 357 360 362 362 362 362 361 361 363 363 362 360 358 360 362 360
322 323 319 321 325 323 313 311 313 311 312 312 312 322 333 339 343 345 344 346 346 345 346 346 349 350 349 351 352 351 354 355 356 356 355 356 356 355 354 355 355 356 354 354 354 354 356 360 362 364 365 364 364 364 362 362 361 360 360 359 357 356 356 355 353 353 352 350 351 351 351 352 353 353 355 356 357 357 357 358 358 356 358 359 360 361 361 360 363 363 361 362 361 356 359 363 361
320 317 319 324 326 324 318 313 313 312 312 312 311 319 327 330 336 345 345 346 346 346 346 346 347 348 348 349 350 351 352 354 355 356 356 357 358 357 356 354 354 354 354 355 355 356 358 360 361 362 365 365 364 364 362 362 362 360 360 360 358 356 356 354 351 351 351 350 351 352 350 350 351 352 352 354 355 357 357 358 357 356 357 357 357 358 358 360 363 362 359 361 362 357 358 361 360
322 319 323 323 317 316 318 315 314 312 311 312 311 315 320 322 329 342 345 345 346 346 346 346 346 347 347 347 348 349 350 352 353 355 356 356 358 359 359 357 356 356 355 353 354 356 358 359 360 361 363 364 364 363 362 361 362 360 359 360 359 356 355 354 351 350 351 350 349 350 349 349 349 350 351 352 354 355 357 357 357 356 355 356 357 357 357 358 360 360 358 358 358 356 356 356 359
322 322 324 323 318 317 317 316 316 312 311 313 311 313 321 326 334 342 344 345 345 346 346 346 345 345 345 345 346 347 349 350 351 353 354 355 357 358 357 356 355 355 356 355 353 355 356 358 360 359 360 362 362 361 361 361 361 358 358 360 360 358 356 354 352 350 350 350 350 349 349 348 348 348 349 352 353 354 355 356 356 354 353 354 355 355 355 356 358 359 358 356 355 356 355 355 359
319 318 318 319 319 320 318 317 316 312 313 314 310 316 328 336 341 343 343 343 343 343 345 345 344 343 343 344 345 345 347 348 349 350 350 353 357 357 355 355 354 353 354 355 355 356 357 356 358 358 358 361 361 360 360 362 361 358 358 360 360 360 358 355 353 352 351 350 350 350 348 347 347 347 348 350 353 355 354 354 354 353 352 351 353 353 353 354 356 358 358 357 356 357 358 358 359
319 318 318 318 317 316 314 314 314 311 312 312 312 324 334 338 339 341 340 341 340 341 343 342 342 342 342 343 343 344 345 345 346 347 346 349 355 357 356 356 355 354 355 356 357 357 357 356 356 355 357 359 359 358 358 361 361 359 358 359 358 359 358 356 353 351 351 351 351 351 349 347 346 347 348 348 351 353 353 353 354 353 352 351 352 354 354 352 354 356 358 357 355 357 359 359 358
Wind_Speed
8 9 8 7 8 7 7 6 4 3 4 1 1 1 4 5 2 4 5 3 4 4 3 6 8 5 4 8 11 11 10 8 5 4 7 12 21 22 21 25 24 22 21 20 19 19 18 18 19 20 19 19 19 19 18 16 14 14 13 11 10 11 10 11 10 10 10 9 9 9 9 8 8 8 9 9 9 9 9 10 11 11 12 12 12 13 13 13 14 15 16 16 15 16 18 17 14
8 9 8 6 8 7 4 5 4 3 3 1 3 1 4 4 2 5 5 3 4 4 6 9 9 7 8 10 11 12 13 13 13 11 12 22 24 21 24 26 25 23 21 20 19 18 18 18 19 21 21 20 20 19 19 16 14 13 12 11 10 10 10 10 10 9 9 9 10 10 10 9 8 9 10 10 9 9 9 11 11 11 11 12 12 13 13 13 14 15 16 16 16 16 18 18 15
7 7 8 6 7 7 4 4 5 4 2 2 3 1 4 5 4 6 5 4 7 8 8 11 10 7 8 10 10 11 12 14 19 15 14 25 21 20 26 24 25 25 21 20 18 18 17 18 19 20 20 19 19 19 18 16 14 13 11 10 10 10 10 10 10 10 10 11 11 11 11 10 10 11 11 10 10 10 11 11 11 11 12 12 12 13 13 13 14 14 15 16 17 16 18 20 17
5 7 8 6 5 5 5 4 5 5 2 2 3 2 2 6 7 7 5 5 10 11 9 11 8 4 5 11 12 11 12 13 19 17 13 20 21 24 26 22 23 23 21 19 18 19 18 19 19 19 18 18 19 18 17 14 13 12 11 11 11 11 11 11 11 10 10 11 12 11 12 12 12 12 11 11 11 11 11 11 11 11 12 12 12 13 13 14 14 14 15 16 17 17 18 20 19
6 8 7 7 4 2 4 4 3 2 2 1 3 4 4 8 10 9 6 8 10 10 10 10 8 7 7 10 8 8 12 13 18 20 16 21 26 27 26 24 23 21 20 19 19 19 20 20 18 18 18 18 18 17 15 13 12 10 11 11 12 12 11 11 11 11 11 12 12 12 12 12 13 12 12 12 12 12 12 12 12 12 12 12 12 13 13 14 14 14 15 16 17 18 19 20 20
8 7 8 8 4 3 4 5 2 1 2 2 4 5 6 8 11 12 9 10 10 10 10 9 11 12 10 10 9 8 11 12 15 20 22 26 28 27 26 25 24 23 21 20 20 20 20 19 18 18 17 17 16 15 14 12 11 10 11 12 12 12 11 11 11 11 12 12 13 13 13 13 13 13 12 12 13 12 13 13 13 12 13 13 13 13 13 14 14 14 15 15 16 17 19 21 21
7 5 6 7 5 4 5 5 2 1 2 5 5 6 7 9 11 13 12 12 11 9 8 9 12 12 10 9 9 10 13 14 15 20 26 28 28 26 25 25 24 23 22 21 21 21 20 18 18 17 16 16 15 14 13 12 11 11 12 12 12 12 12 12 12 12 11 13 13 13 13 13 13 14 13 12 14 13 13 14 14 14 14 14 14 13 13 13 14 14 15 15 15 16 18 20 21
7 5 3 5 5 4 5 5 1 0 5 7 5 7 8 10 11 12 11 11 10 8 9 11 11 11 10 10 10 12 15 16 18 25 29 29 28 25 23 26 26 22 22 23 23 23 21 19 18 17 16 15 14 14 13 12 11 12 12 11 12 12 12 12 12 12 12 14 14 13 13 13 14 14 13 13 14 13 13 14 14 14 14 14 14 14 14 14 14 14 15 15 15 15 17 18 20
7 5 4 4 6 4 6 5 1 3 6 8 5 7 8 9 10 12 11 10 10 9 10 10 10 11 12 13 12 11 14 19 24 27 28 27 26 24 22 25 27 26 25 24 24 24 22 20 19 18 16 15 14 13 12 12 12 12 11 11 12 12 12 12 12 12 12 14 13 13 13 13 14 14 13 14 14 13 13 14 14 14 14 15 15 15 14 15 15 16 16 14 14 15 16 18 18
5 4 4 4 5 5 6 4 1 4 5 8 7 6 8 9 9 11 10 10 11 11 11 10 11 13 13 14 11 10 15 22 26 26 26 26 24 23 21 22 25 27 28 26 24 25 23 22 20 18 16 15 14 13 12 12 13 12 11 11 12 12 12 12 12 12 12 13 13 13 13 13 14 14 14 14 14 13 13 14 15 15 15 16 16 15 14 15 17 17 16 14 15 16 17 17 17
4 3 5 4 5 6 4 2 2 4 5 7 8 7 8 8 9 9 9 10 11 12 13 9 12 14 14 12 8 12 20 23 25 26 25 24 22 22 21 21 21 22 26 27 26 25 24 22 20 17 16 15 14 13 12 13 13 12 11 11 12 12 12 12 12 12 12 12 13 13 13 13 14 15 15 13 13 14 13 14 15 15 17 17 16 15 16 17 17 16 15 15 16 16 17 17 16
4 3 4 4 5 6 5 5 3 5 7 7 8 8 8 7 8 9 10 10 10 12 12 7 11 13 13 11 8 15 22 23 24 25 25 23 22 21 20 20 20 20 22 24 24 24 23 22 20 17 16 15 14 13 12 13 13 12 12 12 12 12 12 12 13 12 13 13 13 13 13 14 14 15 14 13 13 13 13 15 15 15 17 16 16 16 17 17 16 16 14 15 16 16 16 16 16
4 4 4 4 6 7 6 5 4 6 7 5 6 8 9 7 7 9 10 11 11 12 9 5 10 11 11 12 10 15 20 23 24 25 24 22 22 20 20 20 20 20 20 21 22 22 22 21 19 17 16 15 14 13 12 13 13 13 13 12 12 12 11 12 13 14 13 13 14 13 14 14 14 15 14 13 13 13 14 16 15 16 17 17 17 17 17 17 16 16 14 15 16 16 16 15 16
3 3 4 5 6 6 5 3 2 5 5 3 4 6 8 6 6 8 9 11 8 10 11 8 11 11 11 12 10 11 17 24 25 24 23 21 21 20 20 20 20 20 19 20 21 21 20 19 18 18 16 15 14 13 12 13 13 12 12 13 12 12 11 12 13 14 13 13 14 14 14 14 15 15 14 12 12 13 15 16 16 16 17 17 17 17 17 16 16 16 15 16 17 17 17 17 18
4 4 4 5 6 4 5 4 3 5 5 5 5 6 8 2 2 5 7 10 4 3 11 11 9 9 11 13 11 13 20 26 25 23 23 21 21 20 20 20 19 19 19 19 19 19 19 19 18 17 15 15 14 13 12 12 12 12 12 12 12 12 11 12 14 14 13 12 14 15 14 15 15 15 13 12 13 13 14 16 16 17 16 16 16 16 16 16 17 16 15 15 17 18 18 18 18
4 4 3 3 4 4 5 4 4 5 5 8 7 7 9 3 3 2 3 7 7 5 7 10 8 7 11 14 15 20 26 27 25 24 23 22 21 20 19 19 19 18 18 17 17 16 19 20 17 15 14 14 13 13 13 12 12 12 12 12 12 12 11 12 14 14 13 13 14 15 14 14 15 14 13 12 13 13 14 16 17 16 15 15 15 16 16 16 16 17 17 17 18 19 18 18 17
3 5 4 3 3 4 5 5 3 5 6 8 8 6 8 7 1 3 5 5 10 6 5 8 9 9 11 17 22 27 28 27 25 24 23 21 20 19 18 18 18 17 16 16 15 14 17 18 16 14 13 13 13 13 13 11 12 11 12 13 12 13 12 12 14 14 14 13 15 16 14 14 14 14 12 11 11 11 13 15 16 15 15 15 15 15 15 16 17 18 19 20 20 20 19 18 16
2 3 4 3 2 4 5 6 4 7 8 8 8 7 7 10 6 5 5 7 11 8 3 6 8 10 15 22 28 28 28 27 25 24 22 20 18 18 18 17 16 16 16 15 14 13 14 14 15 13 12 14 14 13 12 11 11 11 12 13 12 13 13 12 13 13 13 13 14 15 14 15 15 14 11 11 12 11 11 12 14 16 17 16 16 16 17 17 17 18 18 20 20 20 19 16 15
4 2 3 3 4 5 6 7 5 7 10 10 9 9 7 9 8 6 4 7 11 11 7 8 10 14 20 25 28 27 27 26 25 24 22 20 19 18 18 17 16 16 16 15 15 14 13 13 13 12 12 13 14 13 13 12 11 10 11 12 12 13 13 13 14 12 11 11 11 13 14 15 16 15 12 11 13 12 10 11 14 17 18 17 17 17 18 18 17 16 16 17 19 18 15 13 13
4 3 2 2 1 3 6 8 6 6 11 12 9 8 6 5 5 3 6 10 10 9 10 12 14 18 22 24 26 27 26 24 24 23 21 20 19 19 18 18 17 16 16 15 15 14 13 13 12 12 12 12 13 13 13 13 12 11 12 11 10 11 13 14 14 12 10 10 10 12 13 12 14 16 15 12 13 13 12 12 14 16 17 17 17 17 17 16 15 15 14 14 14 13 11 11 11
4 4 2 3 2 2 4 7 10 8 9 11 10 9 6 4 4 2 7 10 8 7 9 13 17 20 22 22 24 25 25 23 23 21 20 19 18 18 17 17 16 15 15 15 15 14 14 13 12 12 13 12 12 12 13 13 13 14 14 13 11 11 14 12 10 11 11 10 12 14 15 15 16 18 19 17 15 16 15 16 16 15 15 15 14 15 16 15 14 13 13 11 9 9 9 10 10
5 3 3 9 4 4 3 5 11 8 8 10 10 8 6 5 4 3 6 6 5 5 8 12 16 20 21 22 23 23 22 21 21 20 19 18 18 18 17 16 15 15 15 15 15 15 14 13 12 12 12 12 10 11 12 11 12 13 12 13 12 12 14 14 12 12 12 10 11 15 16 17 18 18 20 19 17 17 15 15 16 15 13 13 12 11 12 12 11 10 9 8 7 9 10 9 10
6 0 5 11 2 4 3 3 7 7 10 9 9 7 7 9 7 5 4 4 2 3 8 14 16 20 21 22 21 21 21 19 19 20 20 19 18 18 18 17 16 15 14 14 14 14 14 13 12 12 12 12 10 9 10 9 9 10 9 9 10 10 12 12 12 12 11 8 7 10 11 12 14 15 17 18 17 17 15 13 13 14 12 12 12 9 10 11 10 9 9 8 9 11 11 10 10
7 3 9 8 2 1 4 2 3 5 12 9 8 8 8 10 9 6 3 2 4 7 9 16 16 20 21 20 20 20 20 18 19 20 19 19 18 18 18 17 16 15 14 14 14 13 13 13 13 12 11 11 10 9 9 8 7 8 8 7 7 9 8 9 10 9 9 7 6 6 7 8 9 10 12 13 14 16 16 14 14 16 14 12 11 10 11 12 10 9 9 9 10 10 11 11 10
9 8 9 5 1 4 4 0 1 4 11 10 9 9 7 7 7 8 5 3 7 9 12 17 18 20 19 19 20 19 18 19 20 20 19 18 18 18 16 16 16 15 15 14 13 13 13 14 13 12 12 11 10 10 9 8 7 8 8 6 7 7 6 7 8 8 8 8 7 5 6 7 7 8 9 10 12 12 13 13 15 16 16 15 14 13 12 12 11 10 10 9 9 9 10 10 10
8 9 7 5 5 3 3 2 2 4 8 10 9 8 7 6 5 6 5 5 9 11 14 17 19 19 18 18 19 19 18 18 20 20 19 17 17 17 16 16 16 15 15 14 13 13 13 14 13 12 12 11 10 10 9 8 8 8 7 7 7 6 6 8 8 8 8 7 7 5 5 5 7 8 9 10 11 10 10 11 12 13 14 14 13 12 11 11 12 10 11 10 9 9 9 9 9
6 9 9 7 8 4 2 2 2 4 7 11 10 9 8 6 4 4 4 7 10 13 16 17 18 18 18 17 17 17 17 18 19 19 18 17 17 17 16 15 16 16 15 14 13 13 13 14 14 13 12 11 10 9 9 8 8 8 8 8 7 7 7 8 7 7 7 8 7 6 5 5 6 9 9 9 9 8 9 9 10 12 12 12 11 10 9 10 10 10 10 9 9 9 8 8 9
5 8 9 8 9 7 4 3 3 6 6 10 10 9 10 8 5 5 6 8 11 15 17 18 18 17 17 18 17 14 15 18 19 18 17 17 16 16 16 15 16 16 15 14 13 13 14 14 14 13 12 11 9 9 10 9 8 8 8 8 7 8 7 7 7 7 7 8 7 7 6 6 7 9 8 8 8 7 8 8 9 10 10 11 11 10 9 9 10 10 9 7 8 9 8 8 8
7 8 9 10 10 8 5 3 4 5 6 12 12 8 9 9 7 9 10 8 10 15 17 18 17 16 16 16 15 13 14 17 18 17 17 17 16 16 16 16 16 16 15 14 14 14 14 14 14 13 13 11 10 10 10 9 9 9 9 8 8 8 7 7 8 7 7 8 8 7 6 7 7 8 7 7 6 6 7 8 9 9 9 10 10 9 8 7 8 8 7 7 8 8 8 8 8
8 10 10 8 8 7 5 4 4 4 8 12 9 4 6 9 8 10 11 9 10 14 16 15 14 14 15 15 14 13 15 16 16 17 18 17 17 17 16 16 16 15 15 14 14 15 14 14 14 13 13 12 10 10 9 9 9 9 9 9 9 8 7 8 8 8 8 8 8 8 7 7 7 7 6 5 5 6 6 7 8 8 8 8 8 8 8 7 7 7 7 7 7 8 7 7 7
9 10 9 7 7 5 5 4 5 3 7 10 6 2 3 7 9 9 11 13 15 15 15 15 13 13 14 14 14 14 15 16 17 18 19 18 17 17 17 16 16 15 15 15 15 15 14 14 13 13 14 13 11 10 9 9 9 9 9 9 9 7 7 8 9 9 9 8 8 8 7 6 6 6 5 4 4 6 6 6 7 8 7 7 7 6 6 6 7 7 6 6 6 8 7 6 7
9 9 8 8 7 5 5 4 4 4 6 9 6 1 4 7 9 8 10 15 16 15 13 14 14 14 14 14 14 14 14 17 19 19 19 19 18 17 17 16 16 15 15 16 16 15 14 14 13 14 15 14 12 11 10 9 9 9 9 9 9 7 7 8 8 9 9 9 9 8 7 6 5 5 5 4 3 5 6 6 6 6 5 6 6 4 4 6 6 6 6 6 6 7 8 7 7
9 9 8 8 8 6 5 5 7 9 8 8 4 1 4 5 6 6 12 13 12 12 10 10 11 13 14 13 13 13 14 15 17 19 20 19 17 17 18 17 16 15 15 16 16 16 15 14 14 14 15 14 13 11 10 10 9 9 8 9 9 7 7 8 8 8 9 9 8 8 7 6 5 5 5 3 3 4 6 6 6 6 4 5 5 3 4 5 5 6 5 5 4 4 7 7 7
8 9 9 8 9 8 4 4 6 10 9 7 5 2 4 4 5 9 12 7 9 9 8 8 8 10 12 12 13 13 14 14 15 18 20 19 18 18 18 18 17 15 15 16 16 16 15 14 13 14 15 14 14 12 11 10 10 9 8 9 8 7 7 8 8 8 8 8 8 9 7 6 5 5 4 3 3 4 5 6 5 4 4 4 3 3 5 4 5 5 5 5 3 4 6 6 6
10 10 9 8 9 11 7 4 5 9 9 6 5 3 5 5 6 8 6 2 7 10 9 9 12 12 12 12 13 13 14 15 15 18 21 20 19 18 18 18 18 16 16 16 16 15 14 14 13 14 15 15 14 13 12 11 10 9 9 9 9 7 7 7 8 8 8 8 8 9 8 6 6 5 5 4 3 4 4 5 4 3 3 3 2 3 4 4 4 5 4 4 3 4 4 5 5
11 11 11 8 8 10 7 4 5 8 7 6 8 4 4 7 7 7 7 5 7 9 8 10 12 12 12 12 12 14 14 15 16 20 22 21 19 19 18 19 18 17 16 17 17 16 15 14 14 14 15 15 15 14 13 12 11 10 9 10 9 8 8 7 8 8 8 8 9 9 8 7 7 6 5 4 3 3 4 4 3 3 3 3 2 3 4 4 4 4 4 4 3 3 3 3 4
10 12 13 11 9 8 7 6 6 7 6 5 12 8 5 7 8 9 10 9 8 9 9 10 11 11 12 12 13 14 14 14 17 20 21 21 20 20 19 19 19 17 17 18 18 17 16 15 15 15 16 16 15 15 14 13 12 12 11 11 11 9 9 8 8 8 8 9 9 9 8 7 7 6 6 5 4 3 4 4 3 2 3 3 3 3 4 4 4 3 3 3 2 2 2 2 4
11 13 11 11 10 8 6 7 7 7 5 2 11 14 11 11 11 10 11 9 11 14 13 13 15 13 11 11 13 14 13 13 17 19 20 21 20 20 19 18 19 19 18 19 19 18 17 16 16 16 16 16 16 15 14 13 13 12 11 11 10 10 9 9 8 8 8 9 10 9 8 7 7 7 6 5 5 4 4 4 3 3 3 3 3 3 4 3 3 3 2 2 2 2 2 3 3
12 10 6 8 9 6 4 7 9 8 5 3 7 11 12 13 12 11 13 10 11 13 12 11 14 14 10 9 12 13 13 13 16 17 19 21 21 21 20 18 20 19 19 19 19 19 18 17 17 17 16 16 15 15 14 13 13 12 10 10 10 10 9 9 8 8 8 9 10 9 8 8 8 7 6 6 5 5 4 4 4 3 3 3 3 3 3 3 3 2 2 1 1 2 2 3 2
12 8 6 8 10 8 5 7 11 10 6 4 5 7 9 13 13 12 12 11 10 10 8 7 9 12 11 11 12 13 15 15 15 17 18 20 21 22 20 19 20 20 19 20 20 20 19 18 18 17 17 17 15 16 15 13 13 12 9 8 8 9 9 9 8 8 9 10 10 9 8 9 8 7 7 7 5 5 4 4 4 4 3 3 3 2 3 3 3 2 2 1 1 1 2 4 4
12 11 11 8 12 14 7 5 9 9 7 6 4 5 6 11 13 12 10 10 11 10 11 10 9 9 9 12 13 12 13 14 15 17 17 19 21 21 21 20 21 21 20 21 21 21 20 19 19 18 18 17 16 16 16 14 13 12 9 7 8 8 9 9 9 9 9 10 10 10 9 9 8 8 8 7 6 5 5 3 4 4 4 3 3 3 2 2 3 2 2 1 0 1 1 3 3
11 13 14 10 12 18 10 6 7 7 8 10 8 7 5 8 10 12 10 10 11 11 12 12 10 11 12 12 13 12 10 10 14 16 16 18 21 22 22 21 22 22 21 21 22 21 20 20 20 19 18 18 17 17 17 15 14 14 11 10 9 9 10 9 9 9 9 9 8 9 10 9 8 8 8 7 6 6 5 4 4 4 4 4 2 2 2 2 2 2 2 1 0 1 1 1 2
9 11 15 10 9 12 13 10 9 7 5 9 10 7 3 6 7 11 11 10 12 12 12 12 10 11 13 11 11 12 10 11 13 15 16 18 21 22 22 22 23 22 22 21 22 21 20 21 21 20 19 18 18 18 18 16 15 15 13 12 11 10 10 9 8 8 8 8 7 8 9 9 9 8 8 7 6 6 5 5 5 4 4 4 2 2 2 3 3 3 3 1 1 1 1 2 1
9 10 15 11 5 7 10 9 8 7 4 8 9 8 5 6 5 10 9 7 10 12 13 13 11 10 12 12 12 13 13 12 13 15 16 18 19 21 22 23 23 23 23 22 22 22 22 22 22 21 20 19 19 19 20 18 16 16 15 13 11 10 9 9 8 7 7 7 7 8 8 9 9 7 7 8 6 6 6 5 5 4 3 3 3 3 2 1 4 4 3 2 1 1 1 1 2
8 3 9 12 8 8 9 9 8 8 7 6 9 9 6 4 7 9 8 6 6 8 11 13 15 14 14 13 13 14 13 13 14 15 16 17 18 20 21 22 23 22 23 23 22 23 23 23 23 22 20 20 20 20 21 19 17 16 16 14 12 10 9 9 9 8 7 7 7 8 7 8 9 7 6 8 7 6 6 5 5 4 3 4 4 4 3 2 3 3 2 3 2 2 2 2 2
5 6 3 8 8 11 10 9 9 9 9 8 9 11 8 3 6 8 7 7 5 8 11 10 12 14 14 14 15 15 14 14 14 13 14 16 18 20 21 21 23 23 23 23 23 23 23 23 23 23 21 20 20 21 22 20 18 17 16 15 13 12 10 9 9 9 8 8 7 8 7 7 8 8 8 8 8 7 7 6 5 5 4 4 4 2 3 3 3 3 3 3 3 3 2 3 3
10 6 5 8 9 10 9 8 9 9 9 11 12 13 11 5 3 3 4 6 4 5 9 8 10 11 11 13 14 14 14 12 12 11 12 15 17 18 19 19 21 22 23 24 23 23 24 24 24 24 23 21 21 22 22 21 20 18 17 16 15 13 12 10 10 10 9 9 8 9 8 8 8 8 9 9 9 8 7 7 6 5 5 5 3 2 3 4 4 4 4 4 3 3 2 3 3
13 6 6 8 8 8 7 7 8 8 9 12 14 14 13 9 3 3 4 5 3 3 5 6 9 12 13 12 12 13 13 12 11 10 11 13 14 16 19 20 20 22 23 25 24 24 24 24 25 25 24 22 22 22 22 21 21 20 18 17 16 15 14 12 11 11 11 10 10 9 9 9 8 8 8 9 9 9 8 8 6 6 5 5 4 4 4 4 3 4 4 4 4 3 3 3 3
11 8 8 9 8 7 8 9 8 9 9 10 14 16 12 4 5 7 6 6 6 5 5 5 4 6 9 11 12 10 10 10 10 10 11 12 12 15 19 20 21 23 24 25 25 25 25 25 25 25 25 24 23 23 23 22 21 21 20 19 17 16 15 14 13 12 12 11 11 10 10 10 9 8 9 8 9 9 9 9 8 6 6 5 4 4 3 3 3 4 5 4 4 4 4 3 3
9 9 9 8 8 8 9 9 8 9 10 10 14 16 9 6 8 8 8 8 7 7 7 6 5 3 2 7 12 11 10 10 9 10 12 13 14 18 21 22 23 25 26 27 26 25 25 25 26 26 25 25 24 23 23 23 22 21 20 19 18 17 16 15 14 13 13 12 11 11 11 10 10 10 9 8 8 9 9 9 9 8 6 6 6 5 4 4 5 4 4 5 5 4 4 3 3
11 10 10 10 8 7 7 8 9 9 9 12 14 13 7 7 7 7 8 9 8 8 8 7 7 5 3 1 7 11 11 12 12 12 14 15 18 21 22 21 22 23 27 27 25 24 25 25 26 26 26 26 25 24 23 23 22 21 21 20 19 18 17 16 15 14 13 13 12 12 11 11 10 10 9 9 8 9 9 9 9 9 8 7 7 7 6 6 6 5 4 5 5 4 3 3 4
12 10 10 10 8 7 6 7 10 9 9 10 10 4 3 7 9 9 9 9 9 9 9 9 9 8 7 6 5 7 9 10 12 13 15 16 17 20 20 20 20 23 27 27 25 25 25 24 26 27 27 26 25 24 24 23 23 21 21 21 20 19 17 16 16 15 14 14 13 13 12 11 10 9 9 10 9 9 9 9 9 9 9 8 8 8 7 7 8 7 5 5 4 3 3 4 4
7 10 11 9 10 9 7 8 10 11 10 9 9 6 7 8 9 9 9 10 10 9 11 11 10 11 10 8 7 7 7 6 7 9 12 14 16 19 19 19 21 23 26 26 25 26 24 24 25 25 25 26 26 25 24 23 23 22 22 22 21 20 19 18 17 16 16 15 14 13 13 13 12 10 10 10 10 10 10 9 9 9 9 9 9 9 9 8 8 7 6 6 5 5 4 4 5
6 8 9 10 11 8 6 6 9 11 10 8 12 13 10 9 6 7 7 8 9 10 11 11 11 12 11 10 9 7 6 5 4 7 9 9 13 17 18 19 19 20 22 23 24 23 21 22 24 25 25 25 25 25 24 24 23 23 22 23 22 21 20 19 18 17 16 16 15 14 14 14 13 12 11 10 11 11 11 10 10 9 9 10 9 9 9 9 8 7 7 8 7 7 6 5 5
9 5 6 9 10 6 5 6 7 11 11 8 14 16 11 8 7 7 7 7 8 9 10 11 12 12 11 11 10 8 7 6 3 3 7 8 8 9 11 12 12 14 18 22 23 21 19 21 23 24 24 24 24 24 24 24 24 23 22 23 23 22 21 20 19 18 17 16 16 16 15 15 14 14 13 12 11 12 12 11 11 10 10 10 10 9 9 9 9 8 8 8 8 9 9 7 7
11 7 8 9 7 6 7 6 6 9 10 9 13 14 7 4 5 8 8 6 7 8 9 10 12 12 11 11 10 10 9 8 8 6 2 8 12 12 11 11 13 16 15 18 24 24 22 23 23 23 24 25 27 27 25 25 25 24 22 22 23 22 21 20 19 19 18 18 17 17 16 16 15 15 14 14 13 13 13 13 12 11 11 11 11 11 10 10 10 9 9 8 8 9 10 9 8
10 8 8 9 7 7 9 9 8 8 8 9 10 9 7 6 3 6 8 6 7 9 9 9 10 11 11 11 11 11 10 9 9 10 9 4 9 15 16 14 16 21 21 18 19 21 22 23 22 24 26 26 28 28 27 26 25 24 23 23 23 22 22 20 20 20 20 19 18 18 17 16 16 16 16 15 15 14 14 13 13 12 12 12 11 11 11 11 11 10 10 9 8 8 9 9 8
5 8 10 10 9 8 9 10 10 9 8 9 7 5 7 5 2 4 7 6 8 9 9 9 10 10 11 11 11 11 10 10 9 10 11 11 12 12 12 14 16 21 24 19 14 15 18 19 20 22 24 26 30 30 29 28 26 26 25 24 23 23 22 22 21 21 21 20 19 19 18 17 17 17 17 16 16 16 15 14 14 14 13 12 12 12 12 12 11 11 11 10 9 9 9 9 8
Wind_Direction
165 170 189 204 210 220 214 220 252 221 239 269 102 230 92 88 121 123 116 157 134 101 127 123 101 66 77 100 91 78 55 52 59 72 105 125 137 141 140 137 138 134 130 130 130 127 127 132 133 132 132 132 132 130 124 115 112 110 105 102 100 101 101 103 104 105 108 110 110 105 103 100 101 99 93 89 86 86 87 89 89 93 95 95 94 92 92 94 97 98 99 98 98 97 94 93 91
186 200 206 208 211 228 234 219 251 244 232 126 81 57 125 121 136 124 128 173 134 133 157 122 100 81 74 90 98 81 65 68 83 83 106 127 132 137 139 138 137 133 130 129 129 126 127 130 129 129 132 133 128 121 113 109 110 107 104 105 104 105 107 110 110 109 110 106 102 100 102 103 103 100 92 90 90 90 89 92 95 96 96 95 95 94 93 93 95 97 98 100 100 98 97 97 96
209 206 202 212 220 227 258 240 249 271 261 117 93 111 147 125 110 114 130 159 136 152 155 119 95 75 69 77 84 82 84 86 98 100 117 129 129 138 139 136 135 132 130 130 129 127 129 129 125 125 127 124 118 113 108 109 110 107 109 110 110 112 113 113 108 105 104 101 98 97 100 100 101 99 94 94 94 93 91 93 96 97 98 96 96 97 97 95 95 96 98 101 101 99 100 101 101
230 215 214 226 232 223 249 243 245 285 320 100 103 117 115 108 116 115 137 154 141 153 141 111 90 61 78 84 82 88 97 99 109 112 124 131 130 136 135 133 133 130 128 129 128 128 130 128 123 121 120 116 112 109 108 111 110 110 115 117 117 114 111 108 104 102 100 98 99 99 99 99 99 99 97 96 94 95 96 95 95 95 97 98 99 100 100 99 98 98 98 98 100 101 103 105 105
226 225 236 247 253 241 261 255 253 305 343 27 105 120 107 111 123 123 152 163 148 143 125 114 105 101 90 77 81 97 107 111 115 115 122 131 132 134 134 135 134 130 128 128 127 127 128 125 121 121 118 113 108 107 109 113 113 118 122 119 113 109 107 104 103 103 102 101 102 100 99 99 98 97 97 97 96 97 100 97 94 95 98 99 100 102 101 100 100 99 98 97 99 101 103 105 106
227 227 232 243 262 270 259 263 279 38 339 27 108 112 108 120 126 127 148 155 141 133 127 123 115 110 94 74 75 91 115 117 112 116 126 133 134 135 135 136 133 129 129 129 127 127 127 121 118 119 114 110 107 110 114 117 121 124 123 119 114 110 108 104 103 103 104 105 103 102 100 100 100 100 98 98 98 97 97 97 95 96 99 99 99 100 99 100 99 99 99 98 99 101 103 103 103
233 235 223 233 254 254 250 265 286 152 50 60 103 109 117 133 129 130 145 146 135 140 141 124 115 109 95 88 84 90 112 114 114 122 129 133 135 136 135 134 130 128 130 129 127 128 126 120 120 118 115 114 113 116 119 125 129 126 121 118 113 110 109 106 105 103 105 106 103 103 101 100 100 101 99 99 99 97 97 95 94 96 97 98 97 98 97 100 100 100 101 100 101 103 104 103 103
245 260 236 242 250 232 252 269 289 78 89 88 102 113 135 144 134 138 147 145 142 148 138 124 115 99 92 98 98 105 112 113 119 123 128 133 135 136 134 131 130 129 129 127 128 129 128 126 126 124 123 122 119 122 127 132 130 123 121 117 111 109 108 106 107 106 106 105 103 104 102 100 99 98 99 99 97 95 96 94 94 96 96 98 98 97 97 101 103 103 101 100 103 104 104 105 105
243 250 244 261 266 259 265 270 56 53 92 104 103 115 142 148 141 143 146 144 147 142 124 121 116 102 101 102 103 110 113 118 123 125 130 133 134 136 134 132 131 132 131 129 129 128 128 130 131 130 130 128 126 129 131 132 127 121 122 121 115 111 108 106 107 108 108 105 105 105 104 104 102 100 98 97 96 95 95 96 98 99 100 99 97 96 98 102 101 100 99 100 105 105 105 106 106
241 243 263 278 277 273 261 263 71 73 93 109 123 139 141 144 146 145 147 148 151 138 112 103 108 112 111 106 109 114 118 126 128 129 133 133 134 135 134 134 133 133 131 129 129 128 129 131 133 134 132 130 130 131 132 131 127 125 125 122 117 114 111 109 108 109 109 107 108 107 106 107 106 105 102 98 96 95 94 96 98 99 100 98 97 99 102 103 100 98 98 102 108 109 110 109 109
259 238 252 274 282 274 270 318 62 93 97 104 125 138 131 143 151 149 154 150 155 140 122 115 116 117 112 105 105 119 127 132 132 132 134 134 134 133 132 132 130 129 130 130 130 128 129 132 135 135 133 133 133 133 135 133 129 128 126 122 118 114 112 112 111 112 112 111 111 109 109 110 107 107 106 101 99 98 98 99 98 96 97 97 99 100 100 99 97 97 98 106 110 112 114 112 111
263 261 257 271 279 284 322 10 51 92 96 102 121 124 129 151 153 155 157 150 162 147 129 125 126 124 118 113 116 129 135 136 135 135 135 134 133 133 131 129 129 128 129 131 130 128 129 133 136 137 135 136 136 137 137 133 131 129 126 123 119 117 117 116 116 115 114 114 114 112 112 112 110 107 103 99 100 102 101 100 99 96 96 96 97 96 95 96 98 99 101 107 109 111 111 110 111
262 303 303 278 278 297 340 20 65 90 93 93 111 120 130 148 159 160 156 156 167 148 130 120 126 128 119 116 128 138 139 138 137 137 137 136 133 133 132 130 130 129 130 130 129 129 132 135 138 139 139 139 139 139 139 135 134 133 129 126 124 124 122 118 118 118 116 116 117 114 113 112 111 107 103 99 99 104 104 103 101 98 96 94 94 94 97 100 102 104 105 106 107 111 112 112 113
266 293 297 284 289 308 345 6 55 87 96 94 110 131 134 145 162 155 157 157 157 138 145 161 134 122 119 123 137 144 141 141 141 139 138 136 134 134 133 132 130 130 131 130 131 134 136 137 138 141 142 141 141 140 139 136 136 134 130 128 128 127 122 118 118 119 118 119 119 116 114 111 108 106 107 105 102 105 107 106 102 99 97 98 100 101 103 106 108 108 108 109 110 112 114 117 116
250 278 282 286 298 323 349 2 69 87 105 131 138 140 130 117 127 148 171 147 144 160 144 152 136 125 142 142 147 147 143 144 143 141 139 136 135 134 133 133 131 131 131 131 134 136 137 137 137 141 143 144 143 140 135 132 132 131 129 128 128 127 123 121 119 119 119 120 119 117 115 111 109 109 110 108 103 102 103 101 97 97 101 105 106 105 105 107 109 110 111 113 114 114 115 116 116
260 278 273 285 313 349 352 10 83 100 114 133 138 143 132 77 22 159 213 136 159 200 138 146 144 146 158 145 143 144 143 145 144 142 139 137 136 135 136 135 133 131 131 134 137 138 137 137 138 141 145 146 144 138 133 129 128 127 124 123 125 124 124 122 121 122 121 120 119 118 117 115 113 113 111 108 103 98 98 99 98 101 106 105 104 104 104 105 107 110 114 114 113 113 114 116 116
285 269 262 284 326 7 24 17 43 110 121 130 136 164 142 112 74 213 232 180 154 134 122 157 145 147 151 136 140 142 143 145 144 143 140 139 140 140 139 138 136 134 135 136 139 140 137 137 138 140 146 145 140 137 133 127 123 121 122 124 124 124 127 129 127 127 126 124 122 119 117 115 113 112 107 105 104 99 99 102 105 106 102 99 99 101 103 106 108 111 114 113 113 114 113 114 115
263 270 277 296 350 27 47 45 56 115 135 148 155 187 153 129 163 173 191 194 145 114 137 156 129 137 133 131 140 142 143 146 147 147 144 144 146 145 144 144 143 141 140 140 142 143 139 140 140 141 145 141 136 135 134 129 123 122 128 128 127 129 131 131 129 131 131 129 127 122 117 114 114 116 115 113 110 102 98 99 101 98 93 94 95 97 104 110 113 114 116 116 115 113 110 113 113
223 259 286 312 14 38 56 68 85 127 145 154 160 174 150 139 156 135 147 177 144 135 156 146 127 130 128 134 143 144 147 149 151 151 149 149 150 150 148 149 149 146 145 144 145 145 143 144 144 142 141 140 137 136 136 134 132 130 129 131 136 141 140 137 133 130 134 136 134 129 123 122 122 125 127 119 115 111 106 99 96 96 92 95 97 98 105 111 116 118 121 120 115 113 116 118 116
233 243 251 285 341 29 52 75 99 131 139 146 151 141 127 141 140 114 159 165 150 146 152 147 138 134 135 140 145 147 150 152 154 155 153 152 153 153 150 151 151 150 148 145 144 145 146 146 145 143 142 143 138 137 141 141 145 145 139 138 138 139 141 141 138 135 139 143 143 138 127 123 126 130 133 125 122 125 124 113 102 103 104 105 106 105 107 113 118 116 117 122 119 122 128 121 117
240 239 254 266 234 19 26 70 94 123 134 136 139 129 133 138 95 132 176 162 147 145 150 147 142 140 142 144 148 151 153 155 157 156 155 153 155 153 150 151 150 149 148 145 145 145 147 147 144 145 145 145 140 140 144 144 152 156 152 149 144 141 139 135 141 144 144 147 152 151 140 134 134 136 141 139 138 140 139 133 120 117 117 113 111 110 112 115 118 118 114 115 120 126 122 114 114
237 213 215 256 270 40 343 61 89 125 132 127 136 138 151 133 104 186 189 165 147 148 149 149 146 143 146 147 150 153 155 158 158 156 155 156 157 154 151 151 148 148 146 146 147 145 147 148 146 147 146 144 143 142 142 144 152 153 150 152 152 151 147 146 158 155 150 159 160 152 145 145 145 144 148 147 149 151 147 141 131 126 125 128 128 122 127 123 113 121 119 107 110 117 110 108 110
238 186 222 247 293 41 305 46 85 130 125 127 135 136 162 143 139 189 181 138 175 241 158 151 150 146 149 150 151 155 157 159 157 157 158 159 159 156 154 151 150 149 146 147 147 146 148 148 146 148 146 144 144 139 139 146 150 141 136 147 149 145 151 153 156 151 148 157 152 145 137 139 144 145 148 147 152 154 146 144 140 127 117 125 129 123 136 127 101 107 117 114 113 113 111 111 110
225 246 247 250 69 81 262 86 90 120 116 129 136 146 177 153 144 165 154 100 269 258 166 149 151 148 151 153 155 156 157 158 158 160 160 160 159 157 155 150 150 149 146 149 147 150 151 147 146 147 146 145 144 141 139 142 141 133 134 146 141 140 150 141 137 142 145 142 134 138 129 127 135 135 137 135 139 143 140 142 137 123 114 117 117 108 113 105 91 99 110 116 115 114 115 114 114
220 226 242 250 195 214 244 159 128 116 119 140 156 159 159 131 131 147 153 199 233 216 160 149 152 151 153 156 158 155 156 161 159 161 159 158 157 155 155 150 150 149 149 150 149 154 151 146 148 147 148 148 145 143 140 140 137 135 138 141 136 136 137 126 132 141 140 137 130 125 117 121 128 120 119 118 119 123 129 128 120 117 124 131 128 124 124 117 117 117 109 110 112 115 115 113 116
229 235 247 259 268 256 273 287 170 148 136 146 154 138 117 117 125 131 162 207 210 184 151 151 155 153 156 158 159 156 161 164 159 160 157 157 157 154 154 152 152 152 151 151 150 153 150 148 150 147 149 149 147 144 140 140 138 137 136 135 136 132 126 127 135 137 132 130 120 105 95 103 116 111 108 111 111 112 115 114 111 111 117 122 121 125 134 134 133 123 112 111 111 112 110 111 114
233 245 260 265 273 270 250 274 196 166 145 143 141 121 128 172 176 140 193 211 195 169 149 154 158 156 160 160 158 158 163 163 159 158 156 157 156 155 157 155 156 153 152 154 151 152 151 151 150 147 148 147 148 144 141 141 139 139 137 135 135 128 129 130 129 124 121 117 106 99 84 73 100 109 108 112 111 109 108 106 104 102 103 104 103 106 106 109 111 104 102 104 106 107 104 110 113
242 253 266 256 251 246 227 240 189 176 144 126 129 130 143 181 194 153 183 211 189 164 153 158 161 159 161 159 156 161 163 159 160 160 159 158 157 160 160 159 158 152 155 157 152 153 155 154 150 147 149 148 149 146 143 144 142 141 138 137 134 130 132 129 123 116 109 106 102 101 89 75 93 104 105 109 108 104 104 100 96 96 98 96 98 100 96 99 102 94 94 98 103 106 105 109 113
246 256 261 248 236 223 200 196 182 180 136 123 136 145 157 181 174 151 171 209 196 169 158 160 163 160 161 159 155 163 162 158 163 164 160 159 161 165 161 161 159 153 157 155 152 158 156 152 150 149 151 150 150 149 147 146 145 142 140 136 133 133 133 126 121 115 111 109 103 101 96 90 95 101 102 103 102 101 97 96 96 94 95 97 101 100 96 98 98 92 94 100 101 103 107 109 111
241 246 252 255 241 209 167 162 192 164 121 136 166 174 166 174 152 154 176 195 198 178 161 158 164 162 162 160 158 164 163 162 167 166 163 161 164 167 162 162 159 155 156 154 156 161 155 152 154 153 154 153 151 150 149 147 145 143 141 136 134 134 131 127 124 120 119 118 112 107 102 98 98 102 101 90 95 100 94 96 98 96 95 99 98 93 93 87 81 84 84 92 97 97 102 106 108
234 241 237 242 248 205 144 161 189 146 116 146 200 249 145 155 152 171 191 192 190 178 164 159 159 165 166 161 161 165 163 167 170 168 165 164 167 168 163 164 161 157 156 156 159 159 157 155 157 155 154 156 151 150 151 147 147 147 143 137 134 134 134 133 132 130 127 124 121 117 109 105 103 106 102 80 92 105 100 96 95 97 94 93 92 85 96 90 77 78 73 79 86 88 94 99 103
225 238 229 222 239 204 162 195 166 131 153 163 193 254 122 150 160 174 204 202 183 168 166 160 157 167 169 164 164 165 164 169 172 170 167 167 169 167 164 166 164 159 158 159 157 158 160 157 158 156 155 159 154 151 152 147 148 148 143 139 136 138 139 136 134 132 131 130 128 123 118 116 110 109 108 85 89 108 105 99 94 98 93 92 95 77 91 99 91 86 75 77 77 85 98 97 98
213 226 235 219 226 217 179 197 155 138 161 173 194 288 102 141 151 179 217 207 164 153 169 162 161 169 166 167 168 165 166 170 173 172 169 168 170 167 166 168 166 161 161 160 157 161 161 158 161 157 155 159 154 152 151 148 150 148 145 144 143 146 144 138 137 135 134 133 130 129 125 124 122 118 118 89 81 107 105 104 102 99 93 95 98 82 89 97 101 99 88 89 76 78 99 99 103
210 212 233 224 221 230 189 165 156 155 177 180 183 164 109 137 161 190 218 198 134 149 176 169 175 178 168 171 173 167 167 171 175 173 169 169 169 168 166 167 168 164 162 162 161 164 160 160 165 157 156 159 155 154 153 151 151 150 152 149 148 152 148 143 141 137 137 135 132 134 133 129 133 131 129 101 84 108 100 99 106 101 93 95 99 98 97 91 93 99 96 96 66 53 82 92 99
215 207 219 221 217 229 211 185 172 180 198 170 155 163 133 153 172 180 213 185 145 167 183 186 184 178 170 173 177 173 170 171 174 173 171 170 169 169 166 166 171 168 166 165 161 164 161 161 164 155 158 160 155 155 155 155 154 155 160 153 154 157 151 148 145 142 141 139 138 139 138 137 140 141 139 124 101 112 105 101 113 115 104 99 108 110 103 98 94 94 100 105 89 73 75 79 91
233 223 213 210 218 222 194 177 175 182 209 160 145 185 159 165 172 168 186 192 183 182 196 198 180 169 169 177 182 176 173 172 172 174 173 171 171 170 167 167 173 171 168 165 162 166 165 162 163 159 161 161 157 159 159 161 160 162 166 159 162 163 156 155 151 150 148 145 144 144 143 142 145 146 143 140 125 119 117 119 125 126 114 102 89 92 96 97 95 95 102 107 108 105 98 96 94
278 250 216 198 217 225 166 158 168 167 221 165 140 166 193 188 174 170 180 182 190 192 200 198 171 168 175 178 184 179 176 172 171 175 173 171 172 170 168 169 173 173 169 167 165 169 169 165 165 164 164 162 162 164 165 167 166 167 171 169 167 165 162 162 158 159 154 146 146 149 149 146 149 150 148 148 143 131 122 124 132 128 117 104 84 78 87 92 96 100 105 109 115 112 112 109 90
278 258 222 192 209 227 177 167 168 161 222 209 142 159 176 186 179 172 174 175 195 191 189 189 173 172 175 174 187 181 175 174 170 173 173 173 173 171 171 171 174 175 171 170 170 171 172 169 167 167 166 166 168 168 168 171 171 171 173 172 169 164 165 166 164 164 153 146 149 153 152 150 154 154 156 154 151 154 142 136 144 132 112 106 96 93 97 99 99 100 107 119 131 118 91 89 94
250 253 233 207 202 209 179 172 181 176 202 224 185 181 171 174 172 167 168 175 203 190 178 189 175 164 167 179 194 183 173 179 174 173 176 174 173 172 173 173 177 177 173 172 174 172 173 172 170 170 170 170 171 170 171 172 172 174 174 171 166 164 168 166 163 162 154 154 158 157 154 156 160 161 163 160 157 162 155 150 151 136 122 116 112 108 107 107 105 106 108 111 131 132 111 101 101
237 233 226 211 187 200 205 181 190 188 198 214 219 214 173 166 164 160 168 179 201 181 160 198 177 158 172 186 193 184 174 180 178 174 177 176 174 173 173 176 178 178 176 176 176 176 176 175 172 173 172 172 174 172 174 173 170 172 173 171 165 159 163 161 158 161 156 157 161 159 159 161 165 166 165 165 163 160 158 161 147 135 136 129 125 126 123 121 121 123 102 102 148 131 130 122 106
229 227 235 215 189 214 218 166 190 188 203 215 216 228 182 168 164 156 169 184 186 171 168 190 170 155 190 191 186 188 179 179 182 179 178 177 176 175 174 176 178 178 179 179 179 179 178 177 175 175 174 173 175 173 174 173 168 170 169 164 158 150 159 163 162 168 162 159 163 164 164 165 169 167 166 169 167 160 163 160 138 139 145 145 150 145 135 127 123 124 108 127 240 42 95 130 112
225 223 237 241 216 219 192 153 208 208 207 199 204 234 198 175 166 151 167 183 177 176 178 180 167 173 197 190 180 187 187 188 189 183 183 181 177 176 175 177 180 179 180 181 181 182 180 177 176 176 175 175 176 173 174 174 170 173 170 165 164 159 166 174 173 174 169 168 170 167 163 164 170 168 166 171 165 161 167 155 146 152 147 155 171 138 134 144 142 143 132 151 186 55 356 29 111
231 211 220 246 265 232 191 180 218 232 210 174 197 240 194 187 178 150 163 179 173 173 174 173 178 189 189 183 182 183 188 198 193 186 187 187 180 177 177 179 183 180 179 182 181 181 180 177 176 177 176 176 176 175 175 176 174 176 175 174 177 174 173 176 176 174 171 172 169 164 163 162 168 170 167 170 163 160 166 161 160 160 155 162 165 147 165 156 133 131 132 128 102 122 318 349 6
239 207 198 207 254 249 210 207 225 237 205 148 192 237 226 210 163 131 151 183 176 163 168 179 185 199 194 184 187 186 190 197 194 189 188 190 186 182 181 182 185 183 179 181 182 181 179 177 177 178 177 177 176 176 177 179 178 178 180 182 183 184 182 174 173 175 170 172 165 161 164 161 167 173 167 168 170 166 169 169 165 165 169 166 159 169 193 131 108 116 132 135 102 157 202 309 313
241 189 196 197 202 226 225 230 237 238 233 194 197 212 221 203 130 126 145 168 193 171 178 191 181 187 196 191 190 186 191 200 198 193 187 187 188 186 188 187 188 186 181 181 182 180 178 178 178 178 178 178 177 177 179 181 182 180 182 186 186 187 187 178 176 176 169 169 166 163 165 162 166 172 165 168 177 176 176 175 169 174 175 169 179 178 167 147 123 126 146 156 171 190 201 230 265
208 102 205 221 212 227 230 236 237 231 237 236 215 199 202 194 153 169 158 142 197 180 173 198 191 184 188 190 193 187 188 197 198 195 186 186 190 188 190 193 193 191 184 183 182 179 178 177 178 180 180 179 179 178 179 182 183 182 183 187 188 187 187 184 179 177 173 172 172 171 169 166 171 176 172 174 181 181 182 182 176 180 180 180 195 164 141 155 149 154 174 169 181 193 198 231 229
225 146 190 225 220 226 228 238 242 231 224 227 233 215 195 195 180 185 143 135 187 165 148 180 198 200 202 193 189 188 190 190 189 196 191 189 194 190 189 196 202 200 189 184 184 181 179 178 177 180 181 180 180 179 180 183 182 184 186 187 189 188 187 187 182 181 179 178 182 180 177 177 179 180 179 180 186 186 185 187 186 185 186 184 186 163 163 178 171 173 176 162 182 213 214 228 238
242 208 185 214 210 213 218 221 228 233 223 212 225 228 209 207 191 120 103 111 101 67 113 142 163 185 204 200 189 190 190 181 178 192 196 193 193 192 194 194 201 210 199 187 187 183 178 179 178 179 181 181 182 182 182 183 184 185 187 188 190 190 189 188 187 185 184 184 188 186 183 186 185 183 182 183 188 189 185 187 190 187 185 184 183 187 190 185 175 174 168 165 179 199 224 233 244
232 216 199 213 197 193 210 209 209 222 229 212 213 228 227 196 124 127 118 94 79 59 60 58 92 160 185 184 184 189 181 169 174 187 193 195 192 194 199 194 195 211 208 192 188 186 181 179 179 180 182 182 182 183 184 184 186 187 187 188 190 192 192 193 191 190 189 189 192 191 189 190 191 190 186 185 187 188 185 187 189 184 181 182 183 190 189 188 198 186 176 188 187 183 207 226 240
215 211 205 216 199 193 201 201 208 213 224 228 216 217 206 109 101 122 110 91 84 73 68 54 45 63 147 169 178 185 176 171 187 201 197 194 192 193 198 198 196 203 207 197 190 187 182 180 181 181 182 182 182 183 184 186 187 187 187 188 189 191 194 197 197 196 195 194 194 196 196 193 195 196 193 189 187 187 187 189 189 185 179 181 185 190 187 195 220 214 186 195 196 185 198 217 236
207 217 217 223 216 202 199 201 209 202 209 224 218 211 185 135 129 124 107 95 87 75 69 59 50 52 38 126 164 166 164 171 185 198 203 197 192 191 195 199 199 200 203 199 192 190 186 181 180 182 183 183 183 184 185 187 188 188 188 188 189 191 195 198 200 201 199 198 198 199 200 199 201 199 195 193 189 188 189 187 190 190 186 185 189 195 193 199 218 222 209 212 208 188 195 224 236
194 213 223 229 224 210 214 219 214 206 209 214 207 196 85 123 133 123 112 96 85 76 70 61 48 48 43 32 64 102 122 160 180 186 194 196 191 190 192 197 202 204 205 200 193 193 191 182 180 183 184 183 183 184 185 187 188 189 188 189 189 191 194 197 199 200 201 201 200 201 202 203 205 201 196 196 193 192 192 189 192 195 193 193 195 198 199 202 212 215 215 223 226 207 197 222 240
192 208 216 226 229 226 232 223 208 208 216 206 184 143 100 126 135 121 111 94 84 72 61 60 48 44 44 41 48 61 86 141 188 192 188 191 192 191 192 198 204 204 202 199 196 194 189 180 179 183 185 184 184 185 186 188 188 189 189 190 190 191 193 197 198 198 200 201 200 202 204 203 205 204 198 195 193 193 195 195 198 199 198 200 203 203 204 206 209 213 216 214 222 230 211 211 235
226 208 214 219 220 238 268 241 208 205 212 204 186 174 156 157 153 122 110 89 79 68 56 55 49 45 40 40 48 44 56 103 173 199 195 194 194 190 190 200 209 207 203 202 196 190 185 180 180 185 187 186 186 187 188 189 188 189 190 190 192 193 195 198 200 199 200 201 201 202 205 205 204 206 205 199 194 194 196 197 201 203 203 205 209 209 209 214 216 216 218 214 216 226 218 215 239
254 273 265 230 205 213 254 257 226 204 205 203 189 186 182 177 167 136 113 85 75 64 54 50 46 44 38 34 41 43 48 62 75 171 189 194 198 198 196 200 212 214 209 207 201 190 184 184 184 188 190 188 189 191 191 190 189 191 192 192 193 194 196 199 200 200 201 203 204 204 205 207 205 204 206 203 199 198 198 198 200 203 206 207 210 213 212 215 221 224 224 218 217 222 220 224 240
244 276 265 232 207 208 217 236 241 208 206 210 193 186 168 130 137 127 108 87 75 63 54 50 43 42 40 34 30 31 38 38 26 26 117 177 183 188 197 212 226 226 218 211 205 195 190 191 187 190 195 194 194 196 192 190 192 192 191 192 193 194 196 198 199 200 202 203 205 206 205 207 207 205 205 205 204 203 199 199 202 204 208 209 209 213 214 213 217 225 231 225 219 220 220 224 234
218 225 223 211 207 221 215 220 235 220 208 210 202 184 132 88 87 112 104 90 74 64 58 54 48 45 43 40 36 28 28 31 24 20 27 70 147 159 176 195 209 219 227 224 208 196 194 196 193 196 202 200 198 198 194 191 192 192 190 190 192 194 194 197 199 201 202 203 204 206 207 207 208 207 206 205 206 205 202 201 203 205 209 211 210 213 215 215 216 220 229 232 226 219 220 225 228
224 213 216 211 206 219 219 217 228 231 227 224 208 157 120 100 92 117 107 91 78 68 62 56 51 49 45 42 42 36 29 29 29 28 30 34 53 92 154 178 171 191 216 222 206 195 196 199 202 205 208 205 203 202 196 191 190 190 190 190 191 193 193 196 199 201 203 205 204 205 206 206 207 207 207 207 206 206 206 205 204 206 209 210 210 212 216 217 218 219 223 228 227 221 221 229 231